Flag for China Weather past 2 weeks in Changsha, Hunan, China

Now
70 °F

Clear.


Feels Like: 70 °F
Forecast: 67 / 82 °F
Wind: 6 mph from Southeast

Location: Changsha

Current Time: Mar 30, 2015 at 10:40:53 PM

Latest Report: Mar 30, 2015 at 10:00 PM


Visibility: 4 mi

Pressure: 29.77 "Hg

Humidity: 83%

Dew point: 64 °F

Location of ChangshaLocation

Historic Weather in Changsha — Graph

°F

Changsha temperature yesterday

Maximum temperature yesterday: 70 °F (at 3:00 PM)
Minimum temperature yesterday: 61 °F (at 12:00 AM)
Average temperature yesterday: 64 °F

Past Weeks' High & Low Weather Summary

 TemperatureHumidityPressure
High82 °F (Mar 17, 2:00 PM)94% (Mar 15, 9:00 PM)30.39 "Hg (Mar 15, 9:00 PM)
Low48 °F (Mar 21, 6:00 AM)38% (Mar 25, 4:00 PM)29.62 "Hg (Mar 17, 3:00 PM)
Average59 °F82%30.08 "Hg
* Reported Mar 15 9:00 PM — Mar 30 9:00 PM, Changsha, Weather by CustomWeather, © 2015

Note: Actual official high and low records may vary slightly from our data, if they occured in-between our weather recording intervals... More about our weather records

Advertising

Changsha weather history for previous 24 hours

 ConditionsComfort  
Time TempWeatherWind HumidityBarometerVisibility
9:00 PM
Mon, Mar 30
70 °FPassing clouds.1 mph83%29.77 "Hg4 mi
8:00 PM72 °FPassing clouds.1 mph78%29.77 "Hg4 mi
7:00 PM72 °FClear.6 mph78%29.74 "Hg5 mi
6:00 PM75 °FPassing clouds.6 mph69%29.74 "HgN/A
5:00 PM77 °FPassing clouds.8 mph65%29.77 "HgN/A
4:00 PM75 °FScattered clouds.6 mph65%29.77 "HgN/A
3:00 PM75 °FScattered clouds.8 mph65%29.80 "HgN/A
2:00 PM73 °FScattered clouds.6 mph65%29.83 "HgN/A
1:00 PM72 °FScattered clouds.6 mph65%29.86 "HgN/A
12:00 PM72 °FScattered clouds.3 mph65%29.89 "HgN/A
11:00 AM68 °FMostly cloudy.3 mph73%29.92 "Hg6 mi
10:00 AM66 °FMostly cloudy.1 mph78%29.92 "Hg5 mi
9:00 AM63 °FFog.3 mph88%29.92 "Hg3 mi
8:00 AM61 °FFog.6 mph94%29.92 "Hg2 mi
7:00 AM61 °FDrizzle. Fog.3 mph94%29.89 "Hg1 mi
6:00 AM61 °FFog.1 mph94%29.86 "Hg1 mi
5:00 AM61 °FDrizzle. Fog.3 mph94%29.83 "Hg1 mi
4:00 AM63 °FLight rain. Fog.3 mph88%29.83 "Hg2 mi
3:00 AM63 °FLight rain. Fog.1 mph88%29.83 "Hg3 mi
2:00 AM63 °FLight rain. Mostly cloudy.3 mph88%29.86 "Hg4 mi
1:00 AM63 °FRain. Fog.6 mph94%29.86 "Hg3 mi
12:00 AM64 °FThunderstorms. Fog.3 mph88%29.86 "Hg2 mi
11:00 PM
Sun, Mar 29
64 °FThunderstorms. Fog.3 mph88%29.86 "Hg2 mi
10:00 PM64 °FSprinkles. Fog.6 mph94%29.86 "Hg2 mi
Weather by CustomWeather, © 2015

See weather overviewHow to use our weather pages